DW8248 Weather Reports


time (UTC)temp
C
wind
direction
speed
KPH
gust
KPH
rain 1hr
cm
rain 24hr
cm
rain mn
cm
humidity
%
barometer
mb
20260507065026 23 193 4.8 9.7 0.00 0.00 0.00 80 1015.0
20260507064000 23 243 8.0 11.3 0.00 0.00 0.00 80 1015.2
20260507062952 23 248 6.4 11.3 0.00 0.00 0.00 80 1015.4
20260507062010 23 232 6.4 9.7 0.00 0.00 0.00 79 1015.4
20260507061006 24 237 8.0 11.3 0.00 0.00 0.00 79 1015.4
20260507060014 24 209 8.0 11.3 0.00 0.00 0.00 79 1015.4
20260507054957 24 193 9.7 12.9 0.00 0.00 0.00 79 1015.4
20260507053946 24 216 9.7 16.1 0.00 0.00 0.00 78 1015.6
20260507052911 25 228 11.3 17.7 0.00 0.00 0.00 77 1015.7
20260507051847 26 232 11.3 19.3 0.00 0.00 0.00 75 1015.9
20260507050817 26 158 9.7 19.3 0.00 0.00 0.00 74 1016.0
20260507045749 26 143 9.7 19.3 0.00 0.00 0.00 74 1016.0
20260507044747 26 142 11.3 19.3 0.00 0.00 0.00 73 1015.9
20260507041444 26 142 9.7 17.7 0.00 0.00 0.00 73 1015.6
20260507035346 26 139 9.7 19.3 0.00 0.00 0.00 72 1015.9
20260507033225 26 156 8.0 19.3 0.00 0.00 0.00 73 1015.9
20260507032247 26 137 8.0 19.3 0.00 0.00 0.00 73 1015.9
20260507031240 26 95 11.3 19.3 0.00 0.00 0.00 73 1015.8
20260507030226 26 148 9.7 19.3 0.00 0.00 0.00 73 1015.6
20260507023020 26 105 8.0 17.7 0.00 0.00 0.00 73 1015.9
20260507015713 26 95 8.0 17.7 0.00 0.00 0.00 72 1016.0
20260507013625 26 131 9.7 17.7 0.00 0.00 0.00 71 1016.1
20260507012632 26 117 8.0 14.5 0.00 0.00 0.00 71 1016.0
20260507011653 26 86 8.0 16.1 0.00 0.00 0.00 70 1015.9
20260507010704 26 132 8.0 16.1 0.00 0.00 0.00 69 1015.8
20260507005639 26 140 9.7 16.1 0.00 0.00 0.00 69 1015.8
20260507004612 26 121 9.7 19.3 0.00 0.00 0.00 69 1015.7
20260507003626 26 142 9.7 19.3 0.00 0.00 0.00 69 1015.7
20260507002601 26 134 9.7 17.7 0.00 0.00 0.00 69 1015.5
20260507000500 26 113 8.0 19.3 0.00 0.00 0.00 68 1015.3
20260506235457 26 111 8.0 16.1 0.00 0.00 0.00 68 1015.4
20260506234507 27 132 8.0 17.7 0.00 0.00 0.00 66 1015.5
20260506233501 27 123 8.0 17.7 0.00 0.00 0.00 65 1015.5
20260506232523 27 93 8.0 17.7 0.00 0.00 0.00 65 1015.6
20260506231511 27 128 8.0 17.7 0.00 0.00 0.00 64 1015.5
20260506230532 27 145 8.0 17.7 0.00 0.00 0.00 63 1015.5
20260506224321 27 0 9.7 17.7 0.00 0.00 0.00 58 1015.5
20260506223325 27 100 9.7 17.7 0.00 0.00 0.00 55 1015.5
20260506222322 27 92 8.0 17.7 0.00 0.00 0.00 58 1015.6
20260506221315 27 143 9.7 17.7 0.00 0.00 0.00 59 1015.7
20260506220311 27 115 8.0 19.3 0.00 0.00 0.00 64 1015.7
20260506214151 27 139 11.3 17.7 0.00 0.00 0.00 63 1015.6
20260506213129 27 113 9.7 17.7 0.00 0.00 0.00 66 1015.6
20260506210932 27 123 11.3 19.3 0.00 0.00 0.00 67 1015.8
20260506205917 27 103 11.3 19.3 0.00 0.00 0.00 68 1015.8
20260506204937 27 160 9.7 22.5 0.00 0.00 0.00 68 1015.8
20260506203935 27 96 8.0 22.5 0.00 0.00 0.00 67 1015.8
20260506202931 27 100 11.3 20.9 0.00 0.00 0.00 69 1015.8
20260506201946 27 101 9.7 19.3 0.00 0.00 0.00 68 1015.8
20260506200932 27 101 9.7 19.3 0.00 0.00 0.00 68 1015.8
20260506195857 27 123 9.7 20.9 0.00 0.00 0.00 69 1015.8
20260506194826 27 100 11.3 20.9 0.00 0.00 0.00 67 1015.9
20260506192632 27 120 9.7 17.7 0.00 0.00 0.00 69 1016.1
20260506191621 27 109 9.7 17.7 0.00 0.00 0.00 70 1016.1
20260506190600 27 127 9.7 20.9 0.00 0.00 0.00 70 1016.3
20260506185607 27 106 11.3 20.9 0.00 0.00 0.00 71 1016.4
20260506183414 27 131 12.9 19.3 0.00 0.00 0.00 71 1016.5
20260506182426 27 105 11.3 17.7 0.00 0.00 0.00 73 1016.6
20260506181428 27 129 11.3 19.3 0.00 0.00 0.00 73 1016.8
20260506180424 27 113 11.3 19.3 0.00 0.00 0.00 74 1016.9
20260506175440 27 134 9.7 19.3 0.00 0.00 0.00 73 1017.0
20260506174459 27 87 12.9 19.3 0.00 0.00 0.00 74 1016.9
20260506173448 27 114 9.7 19.3 0.00 0.00 0.00 74 1017.0
20260506171230 27 114 9.7 17.7 0.00 0.00 0.00 75 1017.2
20260506170201 27 153 9.7 17.7 0.00 0.00 0.00 75 1017.1
20260506165204 26 89 8.0 16.1 0.00 0.00 0.00 75 1017.3
20260506164159 26 94 8.0 16.1 0.00 0.00 0.00 75 1017.3
20260506163128 26 129 9.7 16.1 0.00 0.00 0.00 75 1017.3
20260506162122 27 90 6.4 17.7 0.00 0.00 0.00 75 1017.3
20260506160003 26 140 9.7 19.3 0.00 0.00 0.00 75 1017.4
20260506153911 26 86 9.7 16.1 0.00 0.00 0.00 75 1017.5
20260506151720 26 147 9.7 16.1 0.00 0.00 0.00 75 1017.4
20260506150732 26 130 8.0 14.5 0.00 0.00 0.00 74 1017.4
20260506145732 26 116 8.0 14.5 0.00 0.00 0.00 75 1017.3
20260506144738 26 91 9.7 17.7 0.00 0.00 0.00 75 1017.3
20260506143732 26 140 8.0 19.3 0.00 0.00 0.00 76 1017.3
20260506142740 26 113 9.7 19.3 0.00 0.00 0.00 76 1017.3
20260506141734 26 132 9.7 16.1 0.00 0.00 0.00 76 1017.1
20260506140700 26 132 9.7 19.3 0.00 0.00 0.00 76 1017.2
20260506135627 26 149 9.7 19.3 0.00 0.00 0.00 76 1017.1
20260506134610 26 140 9.7 16.1 0.00 0.00 0.00 77 1017.0
20260506133610 26 173 8.0 19.3 0.00 0.00 0.00 77 1017.0
20260506132630 25 155 11.3 19.3 0.00 0.00 0.00 78 1016.9
20260506131553 25 126 9.7 17.7 0.00 0.00 0.00 79 1016.7
20260506130526 25 162 3.2 8.0 0.00 0.00 0.00 81 1016.5
20260506125524 24 164 4.8 8.0 0.00 0.00 0.00 82 1016.7
20260506124506 24 173 3.2 8.0 0.00 0.00 0.00 82 1016.6
20260506123433 24 177 0.0 0.0 0.00 0.00 0.00 82 1016.6
20260506122430 24 177 0.0 0.0 0.00 0.00 0.00 82 1016.6
20260506120243 23 177 0.0 0.0 0.00 0.00 0.00 82 1016.5
20260506115253 23 177 0.0 0.0 0.00 0.00 0.00 82 1016.4
20260506114250 23 177 0.0 0.0 0.00 0.00 0.00 82 1016.3
20260506113231 23 177 1.6 4.8 0.00 0.00 0.00 82 1016.2
20260506112157 23 200 1.6 4.8 0.00 0.00 0.00 82 1016.3
20260506111145 23 213 3.2 4.8 0.00 0.00 0.00 81 1016.3
20260506110143 23 231 3.2 4.8 0.00 0.00 0.00 81 1016.2
20260506105129 24 223 3.2 4.8 0.00 0.00 0.00 80 1016.0
20260506104052 24 172 3.2 6.4 0.00 0.00 0.00 78 1015.8
20260506103044 24 146 3.2 9.7 0.00 0.00 0.00 77 1015.6
20260506102034 24 161 4.8 9.7 0.00 0.00 0.00 77 1015.4
20260506101010 24 146 4.8 11.3 0.00 0.00 0.00 77 1015.5
20260506095951 24 130 4.8 11.3 0.00 0.00 0.00 76 1015.4
20260506094954 24 144 4.8 11.3 0.00 0.00 0.00 76 1015.5
20260506093938 24 144 4.8 11.3 0.00 0.00 0.00 77 1015.5
20260506091806 24 116 3.2 11.3 0.00 0.00 0.00 76 1015.3
20260506090730 24 136 4.8 12.9 0.00 0.00 0.00 76 1015.3
20260506085737 24 101 4.8 16.1 0.00 0.00 0.00 76 1015.2
20260506084717 24 124 4.8 16.1 0.00 0.00 0.00 76 1015.1
20260506083738 24 115 6.4 14.5 0.00 0.00 0.00 75 1015.2
20260506081613 24 132 4.8 12.9 0.00 0.00 0.00 76 1015.3
20260506080553 25 120 6.4 12.9 0.00 0.00 0.00 76 1015.2
20260506073459 25 115 4.8 12.9 0.00 0.00 0.00 74 1015.3
20260506072459 25 131 4.8 14.5 0.00 0.00 0.00 74 1015.3
20260506071439 25 134 4.8 14.5 0.00 0.00 0.00 74 1015.4
20260506070433 25 135 3.2 9.7 0.00 0.00 0.00 74 1015.6